Regional Weather Roundup
Issued by NWS Northern Indiana

Home | Current Version | Previous Version | Text Only | Print | Product List | Glossary Off
Versions: 1 2 3 4 5 6 7 8 9 10 11 12 13 14 15 16 17 18 19 20 21 22 23 24 25 26 27 28 29 30 31 32 33 34 35 36 37 38 39 40 41 42 43 44 45 46 47 48 49 50

000
ASUS43 KIWX 031500
RWRIWX

KIWX WEATHER ROUNDUP
NATIONAL WEATHER SERVICE NORTHERN INDIANA
1000 AM EST SAT DEC 03 2016

NOTE: "FAIR" INDICATES FEW OR NO CLOUDS BELOW 12,000 FEET WITH NO
SIGNIFICANT WEATHER AND/OR OBSTRUCTIONS TO VISIBILITY.

* THESE STATIONS ARE NOT UNDER NWS QUALITY CONTROL. THEY ALSO MAY NOT
  REPORT WEATHER SUCH AS PRECIPITATION OR FOG.

INZ001>027-031600-
NORTHERN INDIANA

CITY           SKY/WX    TMP DP  RH WIND       PRES   REMARKS
GARY*          CLOUDY    34  23  64 NW10      30.35F WCI  26
LAPORTE*       CLOUDY    35  29  81 W7        30.34F WCI  29
SOUTH BEND     CLOUDY    33  26  75 SW5       30.35R WCI  29
ELKHART*       CLOUDY    36  27  69 W6        30.34R
GOSHEN         CLOUDY    34  27  75 W6        30.34R WCI  29
MONTICELLO*    CLOUDY    34  23  62 NW6       30.33F WCI  29
WARSAW*        CLOUDY    32  25  74 W6        30.34S WCI  26
ANGOLA*        CLOUDY    36  28  75 W5        30.32S
FORT WAYNE     CLOUDY    35  26  69 W9        30.35S WCI  28
PERU/GRISSOM   CLOUDY    35  26  70 N5        30.33S WCI  31

$$
INZ028>050-031600-
CENTRAL INDIANA

CITY           SKY/WX    TMP DP  RH WIND       PRES   REMARKS
LAFAYETTE      CLOUDY    34  27  75 N8        30.34F WCI  27
KOKOMO*        CLOUDY    36  26  67 NW6       30.35S
MUNCIE*        CLOUDY    38  26  62 N5        30.34F
INDIANAPOLIS   CLOUDY    36  27  69 N7        30.35F

$$
MIZ043>046-050>051-056>058-064>065-071>073-077>080-031600-
SOUTHWEST LOWER MICHIGAN

CITY           SKY/WX    TMP DP  RH WIND       PRES   REMARKS
BATTLE CREEK   CLOUDY    36  30  79 W5        30.31S
BENTON HARBOR  CLOUDY    36  26  67 W9        30.34R
COLDWATER*     CLOUDY    36  29  77 W3        30.32R
HILLSDALE*     CLOUDY    34  28  80 W5        30.30S WCI  30
HOLLAND        CLOUDY    37  28  70 W7        30.32S
GRAND RAPIDS   FLURRIES  35  29  78 N5        30.31F WCI  31
KALAMAZOO      CLOUDY    36  27  69 SW6       30.32S
STURGIS*       CLOUDY    36  28  72 W5        30.32S
THREE RIVERS*  CLOUDY    36  28  73 CALM      30.33R

$$
OHZ001>008-015>018-024>025-031600-
NORTHWEST OHIO

CITY           SKY/WX    TMP DP  RH WIND       PRES   REMARKS
DEFIANCE       CLOUDY    37  28  70 W3        30.34S
FINDLAY        CLOUDY    36  28  73 W6        30.33R
TOLEDO EXPRESS CLOUDY    36  31  82 W7        30.33R
TOLEDO METCALF CLOUDY    37  31  78 W5        30.35R
LIMA           CLOUDY    36  26  67 W8        30.34R

$$
AND FOR LAKE MICHIGAN COASTAL AND OPEN LAKE BUOY OBSERVATIONS

STATION/POSITION TEMP    WIND        PRES    VSBY  WAVE
                 AIR SEA DIR/SP/G                  HT/PER
                 (F)     (DEG/KT/KT) (MB)    (MI)  (FT/S)
CALUMET HARBOR    33     300/  6/ 10 1027.5R
MICHIGAN CITY     35     210/  9/ 11   N/A
BURNS HARBOR      35     290/  6/ 11 1028.1S
SAINT JOSEPH      37     290/  9/ 12 1027.1
SOUTH LAKE BUOY   35 49  250/  8/ 12 1027.6          1/ 4

$$
&&




USA.gov is the U.S. government's official web portal to all federal, state and local government web resources and services.